Lafayette, IN

7:48 AM EDT on October 17, 2017 (GMT -0400)
Purdue Univ

Weather History for KLAF - June, 2013

Change the Weather History Date:

Sunday, June 16, 2013

  Actual Average Record
Temperature  
Mean Temperature 73 °F 72 °F  
Max Temperature 79 °F 83 °F 95 °F (1967)
Min Temperature 66 °F 61 °F 41 °F (1969)
Degree Days  
Heating Degree Days 0 1  
Month to date heating degree days 18 20  
Since 1 June heating degree days 18 20  
Since 1 July heating degree days 5911 5670  
Cooling Degree Days 8 8  
Month to date cooling degree days 57 93  
Year to date cooling degree days 158 170  
Since 1 June cooling degree days 57 93  
Growing Degree Days 22 (Base 50)    
Moisture  
Dew Point 65 °F    
Average Humidity 77    
Maximum Humidity 87    
Minimum Humidity 67    
Precipitation  
Precipitation 0.01 in 0.13 in 1.29 in (1950)
Month to date precipitation 1.44 2.24  
Year to date precipitation 20.06 16.26  
Sea Level Pressure  
Sea Level Pressure 29.94 in    
Wind  
Wind Speed 7 mph (WSW)    
Max Wind Speed 25 mph    
Max Gust Speed 38 mph    
Visibility 10 miles    
Events Rain , Thunderstorm    
T = Trace of Precipitation, MM = Missing Value Source: NWS Daily Summary

Daily Weather History Graph

Daily Weather History Graph

Search for Another Location

Airport or City:

Trip Planner

Search our weather history database for the weather conditions in past years. The results will help you decide how hot, cold, wet, or windy it might be!

Date:

Astronomy

Jun. 16, 2013 Rise Set
Actual Time 6:17 AM EDT 9:20 PM EDT
Civil Twilight 5:43 AM EDT 9:53 PM EDT
Nautical Twilight 5:01 AM EDT 10:35 PM EDT
Astronomical Twilight 4:12 AM EDT 11:25 PM EDT
Moon 1:54 PM EDT (6/16) 1:23 AM EDT (6/16)
Length of Visible Light 16h 09m
Length of Day
15h 03m
Waxing Crescent, 49% of the Moon is Illuminated
Jun 16
Waxing Crescent
Jun 16
First Quarter
Jun 23
Full
Jun 30
Last Quarter
Jul 8
New

Hourly Weather History & Observations

Time (EDT) Temp. Dew Point Humidity Pressure Visibility Wind Dir Wind Speed Gust Speed Precip Events Conditions
12:54 AM 69.1 °F 63.0 °F 81% 29.94 in 10.0 mi Calm Calm - N/A   Overcast
1:15 AM 68.0 °F 64.4 °F 88% 29.96 in 10.0 mi West 9.2 mph - 0.00 in Rain , Thunderstorm Light Rain
1:31 AM 71.6 °F 64.4 °F 78% 29.95 in 10.0 mi West 21.9 mph 38.0 mph 0.00 in Thunderstorm Overcast
1:44 AM 69.8 °F 64.4 °F 83% 29.97 in 10.0 mi West 23.0 mph 32.2 mph 0.00 in Rain Light Rain
1:54 AM 69.1 °F 64.0 °F 84% 29.96 in 10.0 mi West 13.8 mph 29.9 mph 0.00 in   Mostly Cloudy
2:54 AM 66.9 °F 63.0 °F 87% 29.94 in 10.0 mi SSW 6.9 mph - 0.00 in Rain Light Rain
3:54 AM 66.0 °F 63.0 °F 90% 29.91 in 10.0 mi South 3.5 mph - 0.00 in   Overcast
4:54 AM 66.9 °F 63.0 °F 87% 29.90 in 10.0 mi SW 8.1 mph - 0.00 in   Mostly Cloudy
5:54 AM 66.9 °F 63.0 °F 87% 29.91 in 10.0 mi West 5.8 mph - N/A   Mostly Cloudy
6:54 AM 66.9 °F 63.0 °F 87% 29.94 in 10.0 mi WSW 8.1 mph - 0.01 in Rain Light Rain
7:54 AM 66.9 °F 63.0 °F 87% 29.95 in 10.0 mi WSW 6.9 mph - 0.00 in   Mostly Cloudy
8:54 AM 68.0 °F 64.0 °F 87% 29.96 in 10.0 mi WSW 5.8 mph - 0.00 in   Scattered Clouds
9:54 AM 71.1 °F 64.9 °F 81% 29.96 in 10.0 mi WSW 6.9 mph - N/A   Overcast
10:54 AM 73.0 °F 64.9 °F 76% 29.96 in 10.0 mi SW 10.4 mph 19.6 mph N/A   Overcast
11:08 AM 73.4 °F 64.4 °F 73% 29.97 in 10.0 mi SW 9.2 mph - N/A   Overcast
11:54 AM 73.9 °F 64.9 °F 73% 29.96 in 10.0 mi WSW 9.2 mph - N/A   Overcast
12:34 PM 75.2 °F 66.2 °F 73% 29.97 in 10.0 mi WSW 6.9 mph - N/A   Overcast
12:54 PM 75.9 °F 66.0 °F 71% 29.95 in 10.0 mi SW 11.5 mph - N/A   Overcast
1:54 PM 75.0 °F 64.9 °F 71% 29.96 in 10.0 mi WSW 10.4 mph 17.3 mph N/A   Overcast
2:54 PM 78.1 °F 66.0 °F 66% 29.94 in 10.0 mi WSW 11.5 mph - N/A   Mostly Cloudy
3:54 PM 75.9 °F 66.0 °F 71% 29.94 in 10.0 mi West 9.2 mph 18.4 mph N/A   Overcast
4:54 PM 75.9 °F 66.0 °F 71% 29.93 in 10.0 mi WSW 10.4 mph - 0.00 in   Overcast
5:54 PM 79.0 °F 66.9 °F 66% 29.92 in 10.0 mi SW 8.1 mph - N/A   Clear
6:54 PM 79.0 °F 66.9 °F 66% 29.92 in 10.0 mi West 4.6 mph - N/A   Partly Cloudy
7:54 PM 78.1 °F 66.9 °F 68% 29.91 in 10.0 mi WSW 5.8 mph - N/A   Clear
8:54 PM 75.0 °F 66.9 °F 76% 29.91 in 10.0 mi SW 3.5 mph - N/A   Clear
9:54 PM 72.0 °F 66.9 °F 84% 29.91 in 10.0 mi SSW 4.6 mph - N/A   Clear
10:54 PM 72.0 °F 66.9 °F 84% 29.93 in 10.0 mi SSW 3.5 mph - N/A   Partly Cloudy
11:54 PM 71.1 °F 66.9 °F 87% 29.93 in 10.0 mi SW 3.5 mph - N/A   Clear